Flag for U.S.A. Weather past 2 weeks in Houston, Texas, U.S.A.

Now
94 °F

Partly sunny.


Feels Like: 97 °F
Forecast: 78 / 94 °F
Wind: No wind

Location: Houston Hobby Airport

Current Time: Jul 29, 2014 at 3:11:34 PM

Latest Report: Jul 29, 2014 at 1:53 PM


Visibility: 10 mi

Pressure: 30.05 "Hg

Humidity: 40%

Dew point: 66 °F

Location of HoustonLocation

Historic Weather in Houston — Graph

°F

Houston temperature yesterday

Maximum temperature yesterday: 96 °F (at 4:53 PM)
Minimum temperature yesterday: 76 °F (at 5:53 AM)
Average temperature yesterday: 85 °F

Past Weeks' High & Low Weather Summary

 TemperatureHumidityPressure
High96 °F (Jul 28, 4:53 PM)94% (Jul 18, 4:53 AM)30.13 "Hg (Jul 18, 4:53 AM)
Low74 °F (Jul 19, 3:53 AM)38% (Jul 28, 5:53 PM)29.84 "Hg (Jul 18, 4:53 AM)
Average83 °F75%29.99 "Hg
* Reported Jul 14 1:53 PM — Jul 29 1:53 PM, Houston, Weather by CustomWeather, © 2014

Note: Actual official high and low records may vary slightly from our data, if they occured in-between our weather recording intervals... More about our weather records

Advertising

Houston weather history for previous 24 hours

 ConditionsComfort  
Time TempWeatherWind HumidityBarometerVisibility
1:53 PM
Jul 29
94 °FPartly sunny.No wind40%30.05 "Hg10 mi
12:53 PM92 °FPartly sunny.9 mph41%30.07 "Hg10 mi
11:53 AM91 °FPartly sunny.9 mph44%30.09 "Hg10 mi
10:53 AM90 °FScattered clouds.9 mph47%30.10 "Hg10 mi
9:53 AM87 °FScattered clouds.7 mph57%30.10 "Hg10 mi
8:53 AM84 °FScattered clouds.10 mph74%30.09 "Hg10 mi
7:53 AM81 °FScattered clouds.7 mph85%30.09 "Hg10 mi
6:53 AM81 °FPassing clouds.5 mph85%30.07 "Hg10 mi
5:53 AM81 °FPassing clouds.7 mph85%30.06 "Hg10 mi
4:53 AM81 °FPassing clouds.6 mph85%30.05 "Hg10 mi
3:53 AM80 °FClear.5 mph87%30.04 "Hg10 mi
2:53 AM81 °FPassing clouds.6 mph85%30.04 "Hg10 mi
1:53 AM81 °FPassing clouds.3 mph85%30.05 "Hg10 mi
12:53 AM81 °FPassing clouds.6 mph85%30.05 "Hg10 mi
11:53 PM
Jul 28
81 °FPassing clouds.7 mph85%30.05 "Hg10 mi
10:53 PM83 °FPassing clouds.10 mph74%30.04 "Hg10 mi
9:53 PM84 °FPassing clouds.7 mph70%30.05 "Hg10 mi
8:53 PM86 °FScattered clouds.8 mph67%30.04 "Hg10 mi
7:53 PM88 °FScattered clouds.8 mph65%30.03 "Hg10 mi
6:53 PM94 °FPartly sunny.8 mph48%30.01 "Hg10 mi
5:53 PM96 °FPartly sunny.7 mph38%30.01 "Hg10 mi
4:53 PM96 °FPartly sunny.5 mph40%30.03 "Hg10 mi
3:53 PM95 °FBroken clouds.6 mph40%30.06 "Hg10 mi
Weather by CustomWeather, © 2014

See weather overviewHow to use our weather pages